Location: Castle Hill Houses
(40.8186°N, 73.8497°W)
Time: 09:15:11
(UTC+00:00)

COSMO-SKYMED 1 - Pass Details

Date: 26 January 2020
Orbit: 621 x 623 km, 97.9° (Epoch: 17 February)

Event Time Altitude Azimuth Distance (km) Brightness Sun altitude
Rises 10:14:06 0° 170° (S) 2,888 6.2 -22.1°
Reaches altitude 10° 10:16:17 10° 171° (S) 1,986 5.3 -21.7°
Maximum altitude 10:20:36 76° 257° (WSW) 645 2.4 -20.9°
Enters shadow 10:22:53 28° 340° (NNW) 1,184 3.7 -20.5°
